Jilin-1 Kuanfu-02B 03

operational
NORAD ID: 61191 Int'l Des: 2024-169 Owner: CGSTL Country: CN Constellation: jilin-1
LEOCIRCULARRETROGRADESSO

About Jilin-1 Kuanfu-02B 03

Description loading...

Live Position

Loading 3D Globe...

Upcoming Passes

Altitude History

Altitude vs Time

uPlot chart will show altitude changes over time

Two-Line Element Set

1 61191U 24169C 25298.49938720 .00007221 00000-0 44650-3 0 9992
2 61191 97.5765 26.0514 0006930 47.3503 312.8309 15.10120072 60424
Epoch: Oct 25, 2025 • Age: 12 hours

Current Status

Altitude 566.8 km
Velocity 7.57 km/s
Sub-Earth Point -79.67°S, 33.36°E
Launch Date Sep 20, 2024
Age 1 years
Type other

Technical Details

Classification Payload
Mass 230.00 kg
Dry Mass 200.00 kg
Total Mass 230.00 kg
Length 0.50 m
Diameter 0.50 m
Span 1.50 m
Shape Box + 2 pan
Manufacturer HARB/CGSTL
Bus Type JL-1
Phase Status In Orbit
Owner/State CGSTL/CN

Large Constellations

Loading constellations...